TimeEET,TemperatureF,Dew PointF,Humidity,Sea Level PressureIn,VisibilityMPH,Wind Direction,Wind SpeedMPH,Gust SpeedMPH,PrecipitationIn,Events,Conditions,WindDirDegrees,DateUTC
12:00 AM,60.8,57.2,88,30.06,6.2,Calm,Calm,-,N/A,,Partly Cloudy,0,2012-11-14 22:00:00
1:00 AM,59.0,57.2,94,30.06,-9999.0,Calm,Calm,-,N/A,,Clear,0,2012-11-14 23:00:00
2:00 AM,59,56,88,30.06,6,Calm,Calm,,,,,,2012-11-15 00:00:00
2:00 AM,59.0,57.2,94,30.06,-9999.0,Calm,Calm,-,N/A,,Clear,0,2012-11-15 00:00:00
3:00 AM,57.2,57.2,100,30.06,-9999.0,Calm,Calm,-,N/A,,Clear,0,2012-11-15 01:00:00
4:00 AM,59.0,57.2,94,30.06,-9999.0,Calm,Calm,-,N/A,,Clear,0,2012-11-15 02:00:00
5:00 AM,59.0,57.2,94,30.06,-9999.0,Calm,Calm,-,N/A,,Clear,0,2012-11-15 03:00:00
6:00 AM,59.0,57.2,94,30.06,3.7,Calm,Calm,-,N/A,,Unknown,0,2012-11-15 04:00:00
7:00 AM,59.0,57.2,94,30.06,3.7,Calm,Calm,-,N/A,,Unknown,0,2012-11-15 05:00:00
8:00 AM,62,58,84,30.09,4,Calm,Calm,,,,Mist,,2012-11-15 06:00:00
8:00 AM,62.6,59.0,88,30.09,3.7,Calm,Calm,-,N/A,,Unknown,0,2012-11-15 06:00:00
9:00 AM,69.8,60.8,73,30.09,-9999.0,ESE,4.6,-,N/A,,Clear,120,2012-11-15 07:00:00
10:00 AM,73.4,60.8,65,30.09,-9999.0,East,5.8,-,N/A,,Clear,100,2012-11-15 08:00:00
11:00 AM,75.2,59.0,57,30.06,-9999.0,East,6.9,-,N/A,,Clear,90,2012-11-15 09:00:00
12:00 PM,77.0,57.2,50,30.06,6.2,East,6.9,-,N/A,,Partly Cloudy,80,2012-11-15 10:00:00
1:00 PM,78.8,55.4,44,30.04,6.2,East,6.9,-,N/A,,Partly Cloudy,90,2012-11-15 11:00:00
2:00 PM,77,57,39,30.04,6,NE,8.1,,,,Scattered Clouds,40,2012-11-15 12:00:00
2:00 PM,77.0,57.2,50,30.04,6.2,NE,8.1,-,N/A,,Partly Cloudy,40,2012-11-15 12:00:00
3:00 PM,75.2,59.0,57,30.01,6.2,NE,9.2,-,N/A,,Partly Cloudy,50,2012-11-15 13:00:00
4:00 PM,73.4,60.8,65,30.04,6.2,NE,11.5,-,N/A,,Partly Cloudy,40,2012-11-15 14:00:00
5:00 PM,78.8,60.8,54,30.04,6.2,East,6.9,-,N/A,,Partly Cloudy,90,2012-11-15 15:00:00
6:00 PM,69.8,60.8,73,30.01,-9999.0,ENE,8.1,-,N/A,,Clear,60,2012-11-15 16:00:00
7:00 PM,69.8,60.8,73,30.04,-9999.0,ENE,9.2,-,N/A,,Clear,70,2012-11-15 17:00:00
8:00 PM,69,60,66,30.04,6,ENE,8.1,,,,,60,2012-11-15 18:00:00
8:00 PM,69.8,60.8,73,30.04,-9999.0,ENE,8.1,-,N/A,,Clear,60,2012-11-15 18:00:00
9:00 PM,68.0,60.8,78,30.04,-9999.0,ENE,5.8,-,N/A,,Clear,60,2012-11-15 19:00:00
10:00 PM,66.2,60.8,83,30.04,-9999.0,East,5.8,-,N/A,,Clear,80,2012-11-15 20:00:00
11:00 PM,66.2,60.8,83,30.04,-9999.0,East,6.9,-,N/A,,Clear,80,2012-11-15 21:00:00